EST,Max TemperatureF,Mean TemperatureF,Min TemperatureF,Max Dew PointF,MeanDew PointF,Min DewpointF,Max Humidity, Mean Humidity, Min Humidity, Max Sea Level PressureIn, Mean Sea Level PressureIn, Min Sea Level PressureIn, Max VisibilityMiles, Mean VisibilityMiles, Min VisibilityMiles, Max Wind SpeedMPH, Mean Wind SpeedMPH, Max Gust SpeedMPH,PrecipitationIn, CloudCover, Events, WindDirDegrees
2013-2-1,33,29,24,12,7,3,46,38,28,30.09,29.84,29.63,10,10,10,20,11,26,0.00,2,,274
2013-2-2,30,24,19,15,8,2,58,47,35,30.26,30.14,30.05,10,10,10,12,7,20,0.00,2,,247
2013-2-3,33,27,21,21,19,13,82,72,53,30.04,29.84,29.73,10,8,2,10,5,,0.00,7,Snow,327
2013-2-4,32,26,21,20,9,3,81,50,32,29.96,29.82,29.72,10,10,10,16,8,30,0.00,2,,279
2013-2-5,27,26,24,23,17,8,85,70,51,30.03,29.97,29.93,10,6,2,6,2,,0.02,8,Snow,360
2013-2-6,42,34,27,26,19,2,85,64,33,30.28,30.02,29.91,10,8,3,14,4,21,0.01,5,Snow,287
2013-2-7,34,25,16,15,6,0,71,46,25,30.52,30.46,30.33,10,10,10,10,4,17,0.00,3,,337
2013-2-8,34,28,21,32,26,15,100,81,66,30.47,30.08,29.49,10,4,0,28,7,51,1.31,7,Fog-Snow,66
2013-2-9,23,20,16,23,18,7,100,90,68,30.17,29.73,29.53,10,3,0,18,15,36,0.14,6,Fog-Snow,334
2013-2-10,37,18,0,28,11,-4,100,75,33,30.39,30.34,30.19,10,7,1,8,4,17,0.00,0,,286
2013-2-11,48,29,10,45,36,5,93,88,80,30.35,29.87,29.61,10,4,0,14,4,24,0.27,7,Fog-Rain,197
2013-2-12,45,38,28,41,29,23,93,66,43,29.89,29.72,29.62,10,9,2,17,7,31,0.00,4,,272
2013-2-13,42,32,21,25,22,18,85,64,45,29.88,29.80,29.69,10,10,10,9,4,17,0.00,1,,237
2013-2-14,44,35,26,29,24,16,89,71,32,30.01,29.82,29.70,10,6,0,9,3,,0.09,3,Fog-Snow,286
2013-2-15,48,34,21,35,27,18,93,81,51,30.03,29.99,29.94,10,5,0,13,2,22,0.00,2,Fog,186
2013-2-16,37,34,32,32,30,22,92,83,66,29.95,29.84,29.66,10,4,0,10,4,,0.07,8,Fog-Snow,347
2013-2-17,32,26,19,23,14,-1,86,68,33,29.65,29.48,29.37,10,3,0,22,13,40,0.05,8,Fog-Snow,317
2013-2-18,32,24,17,0,-1,-4,45,34,22,30.17,29.97,29.71,10,10,10,17,13,37,0.00,1,,281
2013-2-19,48,36,23,43,30,2,90,69,35,30.18,29.89,29.60,10,9,2,12,5,22,0.31,5,Rain,192
2013-2-20,48,38,28,42,22,8,90,60,24,29.80,29.65,29.56,10,10,10,18,9,30,0.00,6,,269
2013-2-21,35,31,27,14,11,10,56,47,35,30.16,29.89,29.80,10,10,10,16,10,28,0.00,2,,292
2013-2-22,37,32,28,25,20,14,76,61,50,30.36,30.33,30.21,10,10,10,13,7,20,0.00,7,,351
2013-2-23,39,34,30,34,29,25,89,79,60,30.33,30.09,29.87,10,7,2,10,3,,0.36,8,Rain-Snow,86
2013-2-24,42,38,33,38,34,29,89,86,81,29.87,29.74,29.64,10,4,1,13,7,24,0.77,8,Rain-Snow,360
2013-2-25,43,36,28,29,28,25,89,75,49,30.25,30.05,29.87,10,9,2,8,5,,0.01,6,Snow,337
2013-2-26,46,36,27,31,26,22,89,66,39,30.33,30.26,30.14,10,10,6,12,2,,0.00,3,,93
2013-2-27,45,42,39,41,40,33,93,86,77,30.11,29.70,29.55,10,4,1,17,9,34,1.18,8,Rain,80
2013-2-28,48,41,34,38,34,30,89,80,63,29.65,29.57,29.52,10,8,1,7,3,,0.00,6,,291